| time (UTC) | temp F | wind direction | speed knots | gust knots | rain 1hr in | rain 24hr in | rain mn in | humidity % | barometer mb |
| 20260504081544 | 37 | 269 | 0.0 | 0.0 | 0.02 | 0.05 | 0.04 | 92 | 1011.8 |
| 20260504050020 | 41 | 25 | 0.0 | 1.7 | 0.00 | 0.00 | 0.00 | 75 | 1014.2 |
| 20260504044518 | 41 | 61 | 0.0 | 0.0 | 0.00 | 0.00 | 0.00 | 74 | 1014.2 |
| 20260504043018 | 42 | 61 | 0.0 | 0.0 | 0.00 | 0.00 | 0.00 | 71 | 1014.3 |
| 20260504041517 | 42 | 194 | 0.0 | 6.1 | 0.00 | 0.00 | 0.00 | 67 | 1014.4 |
| 20260504040017 | 44 | 269 | 3.5 | 7.8 | 0.00 | 0.00 | 0.00 | 60 | 1014.1 |
| 20260504034518 | 43 | 22 | 0.0 | 0.9 | 0.00 | 0.00 | 0.00 | 48 | 1012.8 |
| 20260504033015 | 42 | 264 | 0.0 | 0.9 | 0.00 | 0.00 | 0.00 | 51 | 1012.5 |
| 20260504031515 | 43 | 284 | 0.0 | 0.0 | 0.00 | 0.00 | 0.00 | 51 | 1012.2 |
| 20260504030014 | 44 | 284 | 0.0 | 0.9 | 0.00 | 0.00 | 0.00 | 49 | 1012.1 |
| 20260504024513 | 45 | 286 | 0.0 | 0.0 | 0.00 | 0.00 | 0.00 | 45 | 1012.2 |
| 20260504023012 | 45 | 286 | 0.0 | 0.0 | 0.00 | 0.00 | 0.00 | 42 | 1011.9 |
| 20260504021512 | 46 | 286 | 0.0 | 0.0 | 0.00 | 0.00 | 0.00 | 38 | 1011.9 |
| 20260504020014 | 48 | 286 | 0.0 | 0.0 | 0.00 | 0.00 | 0.00 | 36 | 1011.8 |
| 20260504014510 | 50 | 286 | 0.0 | 0.0 | 0.00 | 0.00 | 0.00 | 32 | 1011.8 |
| 20260504013014 | 51 | 286 | 0.0 | 0.0 | 0.00 | 0.00 | 0.00 | 31 | 1011.5 |
| 20260504011510 | 53 | 153 | 0.0 | 0.0 | 0.00 | 0.00 | 0.00 | 30 | 1011.7 |
| 20260504010009 | 55 | 252 | 0.0 | 1.7 | 0.00 | 0.00 | 0.00 | 27 | 1011.7 |
| 20260504004508 | 55 | 199 | 0.0 | 5.2 | 0.00 | 0.00 | 0.00 | 27 | 1012.0 |
| 20260504003005 | 57 | 206 | 0.9 | 5.2 | 0.00 | 0.00 | 0.00 | 26 | 1012.0 |
| 20260504001505 | 56 | 249 | 0.0 | 7.0 | 0.00 | 0.00 | 0.00 | 27 | 1012.2 |
| 20260504000004 | 56 | 243 | 0.0 | 3.5 | 0.00 | 0.00 | 0.00 | 25 | 1012.1 |
| 20260503234503 | 54 | 221 | 0.0 | 6.1 | 0.00 | 0.00 | 0.00 | 26 | 1012.4 |
| 20260503233002 | 55 | 153 | 0.9 | 6.1 | 0.00 | 0.00 | 0.00 | 24 | 1012.3 |
| 20260503231600 | 56 | 84 | 0.9 | 5.2 | 0.00 | 0.00 | 0.00 | 28 | 1012.5 |
| 20260503230100 | 55 | 268 | 0.0 | 2.6 | 0.00 | 0.00 | 0.00 | 30 | 1012.6 |
| 20260503224554 | 54 | 172 | 0.9 | 8.7 | 0.00 | 0.00 | 0.00 | 29 | 1012.8 |
| 20260503223052 | 54 | 268 | 0.0 | 3.5 | 0.00 | 0.00 | 0.00 | 29 | 1012.9 |
| 20260503221550 | 53 | 240 | 0.0 | 2.6 | 0.00 | 0.00 | 0.00 | 30 | 1013.2 |
| 20260503220050 | 53 | 122 | 0.0 | 1.7 | 0.00 | 0.00 | 0.00 | 30 | 1013.4 |
| 20260503214546 | 53 | 122 | 0.0 | 2.6 | 0.00 | 0.00 | 0.00 | 31 | 1013.7 |
| 20260503213047 | 53 | 147 | 0.0 | 2.6 | 0.00 | 0.00 | 0.00 | 30 | 1014.0 |
| 20260503211543 | 54 | 133 | 0.9 | 3.5 | 0.00 | 0.00 | 0.00 | 30 | 1014.3 |
| 20260503210041 | 53 | 163 | 1.7 | 6.1 | 0.00 | 0.00 | 0.00 | 32 | 1014.7 |
| 20260503204540 | 53 | 9 | 0.0 | 2.6 | 0.00 | 0.00 | 0.00 | 32 | 1014.9 |
| 20260503203043 | 54 | 127 | 0.9 | 4.3 | 0.00 | 0.00 | 0.00 | 34 | 1015.0 |
| 20260503201537 | 51 | 158 | 0.0 | 6.1 | 0.00 | 0.00 | 0.00 | 35 | 1015.5 |
| 20260503200036 | 52 | 247 | 0.0 | 6.1 | 0.00 | 0.00 | 0.00 | 34 | 1015.6 |
| 20260503194536 | 52 | 212 | 0.9 | 4.3 | 0.00 | 0.00 | 0.00 | 32 | 1015.8 |
| 20260503193033 | 54 | 199 | 0.0 | 2.6 | 0.00 | 0.00 | 0.00 | 32 | 1015.9 |
| 20260503191532 | 53 | 251 | 0.0 | 3.5 | 0.00 | 0.00 | 0.00 | 33 | 1016.1 |
| 20260503190035 | 52 | 269 | 0.9 | 3.5 | 0.00 | 0.00 | 0.00 | 32 | 1016.4 |
| 20260503184527 | 51 | 145 | 0.9 | 3.5 | 0.00 | 0.00 | 0.00 | 31 | 1016.7 |
| 20260503183026 | 52 | 205 | 0.0 | 3.5 | 0.00 | 0.00 | 0.00 | 31 | 1016.9 |
| 20260503181525 | 53 | 206 | 0.0 | 4.3 | 0.00 | 0.00 | 0.00 | 29 | 1017.1 |
| 20260503180024 | 52 | 248 | 0.0 | 4.3 | 0.00 | 0.00 | 0.00 | 32 | 1017.3 |
| 20260503174529 | 52 | 214 | 0.0 | 7.0 | 0.00 | 0.00 | 0.00 | 31 | 1017.4 |
| 20260503173031 | 54 | 72 | 0.9 | 7.0 | 0.00 | 0.00 | 0.00 | 31 | 1017.4 |
| 20260503171516 | 51 | 77 | 0.9 | 7.0 | 0.00 | 0.00 | 0.00 | 33 | 1017.9 |